UAL290 KSAN-KORD

Flight info

Callsign UAL290
Flight time N/A
Altitude 41000
Route ZZOOO4 MTBAL LANCY J78 DRK KA33Q RGINA GOSIP LAA HYS IRK SHAIN2
Aircraft B772/H-SDE2E3FGHIJ5LORVWXY/LB1D1

Departure

Time 2026-04-26 15:44
Airport San Diego International Airport (KSAN)

Arrival

Time N/A
Airport Chicago O'Hare International Airport (KORD)
Time Latitude Longitude Altitude Speed Heading
2026-04-26 15:26 32.73250 -117.20538 33 ft 0 kts 171°
2026-04-26 15:34 32.73255 -117.20539 33 ft 2 kts 171°
2026-04-26 15:34 32.73270 -117.20542 33 ft 2 kts 171°
2026-04-26 15:35 32.73284 -117.20545 33 ft 2 kts 171°
2026-04-26 15:35 32.73299 -117.20548 33 ft 2 kts 171°
2026-04-26 15:35 32.73311 -117.20551 33 ft 0 kts 171°
2026-04-26 15:35 32.73323 -117.20554 33 ft 2 kts 153°
2026-04-26 15:36 32.73335 -117.20564 33 ft 2 kts 128°
2026-04-26 15:36 32.73342 -117.20579 33 ft 2 kts 105°
2026-04-26 15:36 32.73344 -117.20597 33 ft 2 kts 82°
2026-04-26 15:36 32.73340 -117.20614 33 ft 2 kts 59°
2026-04-26 15:37 32.73338 -117.20616 33 ft 0 kts 55°
2026-04-26 15:38 32.73340 -117.20613 33 ft 1 kts 55°
2026-04-26 15:38 32.73354 -117.20589 33 ft 5 kts 53°
2026-04-26 15:38 32.73394 -117.20563 33 ft 8 kts 21°
2026-04-26 15:39 32.73457 -117.20533 33 ft 11 kts 21°
2026-04-26 15:39 32.73529 -117.20480 33 ft 13 kts 47°
2026-04-26 15:39 32.73587 -117.20380 33 ft 15 kts 82°
2026-04-26 15:39 32.73574 -117.20293 33 ft 17 kts 105°
2026-04-26 15:40 32.73525 -117.20097 33 ft 19 kts 106°
2026-04-26 15:40 32.73487 -117.19935 33 ft 21 kts 105°
2026-04-26 15:40 32.73444 -117.19756 33 ft 23 kts 106°
2026-04-26 15:40 32.73397 -117.19566 33 ft 24 kts 107°
2026-04-26 15:41 32.73346 -117.19365 33 ft 26 kts 106°
2026-04-26 15:41 32.73295 -117.19151 33 ft 27 kts 104°
2026-04-26 15:41 32.73243 -117.18927 33 ft 29 kts 107°
2026-04-26 15:41 32.73185 -117.18688 33 ft 30 kts 107°
2026-04-26 15:42 32.73125 -117.18444 33 ft 31 kts 106°
2026-04-26 15:42 32.73061 -117.18186 33 ft 33 kts 105°
2026-04-26 15:42 32.73002 -117.17934 33 ft 30 kts 107°
2026-04-26 15:42 32.72963 -117.17783 33 ft 12 kts 107°
2026-04-26 15:43 32.72954 -117.17674 33 ft 14 kts 81°
2026-04-26 15:43 32.73009 -117.17577 33 ft 11 kts 357°
2026-04-26 15:43 32.73108 -117.17947 33 ft 79 kts 286°
2026-04-26 15:44 32.73346 -117.18935 71 ft 160 kts 285°
2026-04-26 15:44 32.73920 -117.21589 2166 ft 177 kts 282°
2026-04-26 15:44 32.74223 -117.22962 3436 ft 180 kts 287°
2026-04-26 15:45 32.74881 -117.25549 6094 ft 168 kts 286°
2026-04-26 15:45 32.75209 -117.26836 7219 ft 170 kts 286°
2026-04-26 15:46 32.75763 -117.29718 9100 ft 197 kts 265°
2026-04-26 15:46 32.75281 -117.31224 10118 ft 211 kts 236°
2026-04-26 15:46 32.74072 -117.32269 11133 ft 231 kts 203°
2026-04-26 15:46 32.73002 -117.32410 11806 ft 248 kts 179°
2026-04-26 15:47 32.70858 -117.31126 13154 ft 280 kts 139°
2026-04-26 15:47 32.69492 -117.26302 15516 ft 299 kts 99°
2026-04-26 15:47 32.69022 -117.21368 17338 ft 317 kts 99°
2026-04-26 15:48 32.68515 -117.16018 18627 ft 356 kts 99°
2026-04-26 15:48 32.67944 -117.09976 19940 ft 395 kts 99°
2026-04-26 15:48 32.67329 -117.03421 21668 ft 418 kts 100°
2026-04-26 15:48 32.66701 -116.96507 23438 ft 438 kts 97°
2026-04-26 15:49 32.66766 -116.89381 25363 ft 449 kts 90°
2026-04-26 15:49 32.67992 -116.82243 27403 ft 449 kts 68°
2026-04-26 15:49 32.71040 -116.75957 29164 ft 437 kts 44°
2026-04-26 15:49 32.75117 -116.71526 30763 ft 406 kts 22°
2026-04-26 15:50 32.79784 -116.68725 32164 ft 372 kts
2026-04-26 15:50 32.84403 -116.66692 32706 ft 385 kts
2026-04-26 15:50 32.89388 -116.64359 32837 ft 414 kts
2026-04-26 15:50 32.94550 -116.61377 33072 ft 457 kts 24°
2026-04-26 15:51 32.99807 -116.56920 33337 ft 485 kts 27°
2026-04-26 15:51 33.05319 -116.52172 33621 ft 510 kts 28°
2026-04-26 15:51 33.10953 -116.47309 33841 ft 534 kts 28°
2026-04-26 15:51 33.16980 -116.42096 33904 ft 561 kts 29°
2026-04-26 15:52 33.22749 -116.37087 34600 ft 567 kts 29°
2026-04-26 15:52 33.27569 -116.32885 35694 ft 557 kts 30°
2026-04-26 15:52 33.32682 -116.28424 36687 ft 554 kts 30°
2026-04-26 15:52 33.36608 -116.24998 37163 ft 555 kts 30°
2026-04-26 15:53 33.44276 -116.18295 38248 ft 550 kts 30°
2026-04-26 15:53 33.49887 -116.13384 38844 ft 549 kts 30°
2026-04-26 15:53 33.55352 -116.08512 39432 ft 550 kts 35°
2026-04-26 15:53 33.60147 -116.02355 39932 ft 558 kts 52°
2026-04-26 15:54 33.63511 -115.95118 40296 ft 560 kts 66°
2026-04-26 15:54 33.66382 -115.86973 40660 ft 560 kts 67°
2026-04-26 15:54 33.69309 -115.78569 40878 ft 563 kts 67°
2026-04-26 15:55 33.74932 -115.62372 40897 ft 577 kts 67°
2026-04-26 15:55 33.80405 -115.46542 40895 ft 588 kts 67°
2026-04-26 15:56 33.85966 -115.30374 40878 ft 593 kts 67°
2026-04-26 15:56 33.91806 -115.13309 40888 ft 594 kts 68°
2026-04-26 15:57 33.97679 -114.96056 40881 ft 594 kts 67°
2026-04-26 15:57 34.03123 -114.79977 40880 ft 595 kts 68°
2026-04-26 15:58 34.16119 -114.41255 40884 ft 595 kts 68°
2026-04-26 15:58 34.29217 -114.01701 40783 ft 596 kts 70°
2026-04-26 15:58 34.30528 -113.96948 40853 ft 584 kts 73°
2026-04-26 15:58 34.31731 -113.92310 40896 ft 567 kts 73°
2026-04-26 15:59 34.32906 -113.87805 40885 ft 557 kts 73°
2026-04-26 15:59 34.42392 -113.52045 41051 ft 560 kts 72°
2026-04-26 15:59 34.50304 -113.22673 40358 ft 561 kts 72°
2026-04-26 16:00 34.51920 -113.16800 40496 ft 562 kts 72°
2026-04-26 16:00 34.56076 -113.01485 40597 ft 566 kts 72°
2026-04-26 16:00 34.58339 -112.93050 40898 ft 560 kts 72°
2026-04-26 16:01 34.60422 -112.85246 40907 ft 560 kts 72°
2026-04-26 16:01 34.65999 -112.69315 40911 ft 562 kts 62°
2026-04-26 16:01 34.84685 -112.23669 40724 ft 561 kts 63°
2026-04-26 16:02 34.89102 -112.12783 40532 ft 557 kts 63°
2026-04-26 16:02 34.90849 -112.08470 40796 ft 554 kts 63°
2026-04-26 16:02 34.92547 -112.04272 40924 ft 554 kts 63°
2026-04-26 16:03 34.95951 -111.95843 40946 ft 559 kts 62°
2026-04-26 16:03 34.98405 -111.89753 40936 ft 561 kts 63°
2026-04-26 16:04 35.00239 -111.85193 40916 ft 561 kts 63°
2026-04-26 16:04 35.26181 -111.20001 41563 ft 551 kts 63°
2026-04-26 16:04 35.30196 -111.09794 40992 ft 556 kts 63°
2026-04-26 16:05 35.35605 -110.96003 40867 ft 558 kts 64°
2026-04-26 16:05 35.45203 -110.71376 40889 ft 558 kts 64°
2026-04-26 16:06 35.56472 -110.42219 40921 ft 557 kts 64°
2026-04-26 16:06 35.67072 -110.14554 40896 ft 560 kts 64°
2026-04-26 16:07 35.78108 -109.85496 40915 ft 557 kts 65°
2026-04-26 16:07 35.89323 -109.55692 40957 ft 553 kts 64°
2026-04-26 16:08 36.00474 -109.25784 40935 ft 556 kts 65°
2026-04-26 16:08 36.10489 -108.98678 40957 ft 549 kts 65°
2026-04-26 16:09 36.20641 -108.70960 40976 ft 557 kts 66°
2026-04-26 16:09 36.30071 -108.44990 40952 ft 552 kts 65°
2026-04-26 16:10 36.40620 -108.15681 40916 ft 558 kts 66°
2026-04-26 16:10 36.50044 -107.89261 40937 ft 551 kts 66°
2026-04-26 16:11 36.59913 -107.61343 40962 ft 558 kts 66°
2026-04-26 16:11 36.69991 -107.32576 40957 ft 552 kts 67°
2026-04-26 16:12 36.79916 -107.03974 40985 ft 558 kts 67°
2026-04-26 16:12 36.94128 -106.62545 40958 ft 553 kts 67°
2026-04-26 16:13 37.03782 -106.34077 40967 ft 546 kts 67°
2026-04-26 16:13 37.13524 -106.05067 40974 ft 550 kts 67°
2026-04-26 16:14 37.22716 -105.77436 40993 ft 545 kts 67°
2026-04-26 16:15 37.35997 -105.37052 41005 ft 542 kts 68°
2026-04-26 16:15 37.44874 -105.09748 40984 ft 545 kts 69°
2026-04-26 16:16 37.59300 -104.64817 40966 ft 544 kts 68°
2026-04-26 16:16 37.68888 -104.34568 40922 ft 544 kts 69°
2026-04-26 16:17 37.78020 -104.05455 40863 ft 550 kts 69°
2026-04-26 16:17 37.87458 -103.75059 40845 ft 547 kts 69°
2026-04-26 16:18 38.01727 -103.28490 40827 ft 545 kts 70°
2026-04-26 16:19 38.15394 -102.83179 40848 ft 546 kts 69°
2026-04-26 16:20 38.26403 -102.36423 40876 ft 550 kts 77°
2026-04-26 16:20 38.35372 -101.91702 40869 ft 549 kts 77°
2026-04-26 16:21 38.41248 -101.62049 40889 ft 545 kts 77°
2026-04-26 16:21 38.47372 -101.30690 40859 ft 548 kts 78°
2026-04-26 16:22 38.53243 -101.00166 40862 ft 543 kts 78°
2026-04-26 16:22 38.59378 -100.67765 40886 ft 543 kts 77°
2026-04-26 16:23 38.65358 -100.35657 40880 ft 547 kts 77°
2026-04-26 16:23 38.70874 -100.05578 40876 ft 538 kts 78°
2026-04-26 16:24 38.76762 -99.72931 40893 ft 543 kts 77°
2026-04-26 16:24 38.82405 -99.41112 40884 ft 543 kts 78°
2026-04-26 16:25 38.88847 -99.08790 40863 ft 536 kts 73°
2026-04-26 16:25 38.95087 -98.81226 40859 ft 544 kts 73°
2026-04-26 16:26 39.00476 -98.56735 40862 ft 535 kts 73°
2026-04-26 16:26 39.08369 -98.20265 40850 ft 542 kts 74°
2026-04-26 16:27 39.14554 -97.91240 40850 ft 540 kts 74°
2026-04-26 16:27 39.21028 -97.60427 40844 ft 534 kts 74°
2026-04-26 16:28 39.26543 -97.33826 40845 ft 538 kts 75°
2026-04-26 16:28 39.33210 -97.01215 40846 ft 530 kts 75°
2026-04-26 16:29 39.38161 -96.76664 40857 ft 537 kts 75°